{"data":{"norad_id":68770,"epoch":"2026-09-20T01:13:23.896128Z","epoch_age_seconds":78925,"freshness":"FRESH","line1":"1 68770U 26086E   26263.05097102  .00011142  00000+0  34684-3 0  9999","line2":"2 68770  97.2849 298.4470 0001076 107.7622 252.3738 15.33453937 23617","mean_motion":15.33453937,"eccentricity":0.0001076,"inclination_deg":97.2849,"raan_deg":298.447,"arg_perigee_deg":107.7622,"mean_anomaly_deg":252.3738,"bstar":0.00034684,"rev_number":2361,"period_min":93.905657369609,"perigee_km":464.78020725731,"apogee_km":466.25296150867,"semimajor_km":6843.653584383,"source":"CELESTRAK","updated_at":"2026-09-20T09:00:43.997861Z"}}